Flag for U.S.A. Weather past 2 weeks in Las Cruces, New Mexico, U.S.A.

Now
62 °F

Sunny.


Feels Like: 62 °F
Forecast: 45 / 84 °F
Wind: 3 mph from Northeast

Location: Las Cruces International

Current Time: Mar 28, 2015 at 9:17:59 AM

Latest Report: Mar 28, 2015 at 8:55 AM


Visibility: 10 mi

Pressure: 30.23 "Hg

Humidity: 18%

Dew point: 17 °F

Location of Las CrucesLocation

Historic Weather in Las Cruces — Graph

°F

Las Cruces temperature yesterday

Maximum temperature yesterday: 78 °F (at 4:35 PM)
Minimum temperature yesterday: 39 °F (at 4:15 AM)
Average temperature yesterday: 59 °F

Past Weeks' High & Low Weather Summary

 TemperatureHumidityPressure
High79 °F (Mar 23, 3:15 PM)98% (Mar 18, 5:55 AM)30.37 "Hg (Mar 18, 5:55 AM)
Low37 °F (Mar 26, 6:55 AM)7% (Mar 23, 3:15 PM)29.97 "Hg (Mar 19, 4:55 PM)
Average57 °F43%30.16 "Hg
* Reported Mar 13 8:15 AM — Mar 28 8:15 AM, Las Cruces, Weather by CustomWeather, © 2015

Note: Actual official high and low records may vary slightly from our data, if they occured in-between our weather recording intervals... More about our weather records

Advertising

Las Cruces weather history for previous 24 hours

 ConditionsComfort  
Time TempWeatherWind HumidityBarometerVisibility
8:15 AM
Sat, Mar 28
57 °FSunny.No wind23%30.21 "Hg10 mi
7:55 AM52 °FClear.3 mph27%30.21 "Hg10 mi
7:35 AM50 °FClear.3 mph27%30.20 "Hg10 mi
7:15 AM47 °FClear.5 mph28%30.20 "Hg10 mi
6:55 AM44 °FClear.5 mph30%30.20 "Hg10 mi
6:15 AM47 °FClear.3 mph27%30.19 "Hg10 mi
5:55 AM42 °FClear.6 mph32%30.18 "Hg10 mi
5:35 AM44 °FClear.6 mph30%30.17 "Hg10 mi
5:15 AM44 °FClear.7 mph31%30.16 "Hg10 mi
4:55 AM42 °FClear.No wind32%30.16 "Hg10 mi
4:35 AM43 °FClear.No wind31%30.16 "Hg10 mi
4:15 AM42 °FClear.No wind31%30.16 "Hg10 mi
3:55 AM46 °FClear.3 mph29%30.17 "Hg10 mi
3:35 AM49 °FClear.3 mph25%30.17 "Hg10 mi
3:15 AM47 °FClear.3 mph26%30.17 "Hg10 mi
2:55 AM53 °FClear.3 mph22%30.17 "Hg10 mi
2:35 AM55 °FClear.3 mph20%30.17 "Hg10 mi
2:15 AM51 °FClear.No wind23%30.18 "Hg10 mi
1:55 AM46 °FClear.6 mph27%30.17 "Hg10 mi
1:35 AM52 °FClear.6 mph23%30.17 "Hg10 mi
1:15 AM51 °FClear.3 mph24%30.17 "Hg10 mi
12:55 AM52 °FClear.5 mph23%30.17 "Hg10 mi
12:35 AM54 °FClear.3 mph21%30.17 "Hg10 mi
12:15 AM55 °FClear.5 mph21%30.17 "Hg10 mi
11:35 PM
Fri, Mar 27
55 °FClear.7 mph21%30.17 "Hg10 mi
11:15 PM58 °FClear.6 mph19%30.17 "Hg10 mi
10:55 PM60 °FClear.7 mph18%30.17 "Hg10 mi
10:35 PM62 °FClear.9 mph16%30.17 "Hg10 mi
9:15 PM63 °FClear.7 mph15%30.16 "Hg10 mi
8:55 PM64 °FClear.6 mph15%30.16 "Hg10 mi
8:35 PM66 °FClear.6 mph14%30.15 "Hg10 mi
8:15 PM67 °FSunny.6 mph14%30.15 "Hg10 mi
7:55 PM68 °FSunny.5 mph13%30.14 "Hg10 mi
7:35 PM70 °FSunny.5 mph13%30.14 "Hg10 mi
7:15 PM73 °FSunny.5 mph12%30.14 "Hg10 mi
6:55 PM75 °FSunny.6 mph11%30.14 "Hg10 mi
6:15 PM77 °FSunny.10 mph10%30.15 "Hg10 mi
5:55 PM77 °FSunny.9 mph10%30.15 "Hg10 mi
5:35 PM78 °FSunny.6 mph9%30.15 "Hg10 mi
5:15 PM77 °FSunny.9 mph9%30.15 "Hg10 mi
4:55 PM77 °FSunny.5 mph10%30.16 "Hg10 mi
4:35 PM78 °FSunny.14 mph9%30.16 "Hg10 mi
4:15 PM77 °FSunny.5 mph10%30.17 "Hg10 mi
3:55 PM77 °FSunny.No wind10%30.18 "Hg10 mi
3:15 PM76 °FSunny.8 mph11%30.20 "Hg10 mi
2:55 PM77 °FSunny.No wind11%30.22 "Hg10 mi
2:35 PM75 °FSunny.6 mph12%30.23 "Hg10 mi
2:15 PM74 °FSunny.5 mph12%30.24 "Hg10 mi
1:55 PM74 °FSunny.8 mph12%30.25 "Hg10 mi
1:35 PM73 °FSunny.6 mph13%30.27 "Hg10 mi
1:15 PM72 °FSunny.3 mph14%30.27 "Hg10 mi
12:55 PM71 °FSunny.5 mph14%30.28 "Hg10 mi
12:35 PM71 °FSunny.5 mph16%30.29 "Hg10 mi
12:15 PM68 °FSunny.No wind17%30.30 "Hg10 mi
11:55 AM69 °FSunny.5 mph17%30.31 "Hg10 mi
11:35 AM67 °FSunny.5 mph19%30.31 "Hg10 mi
11:15 AM66 °FSunny.3 mph20%30.32 "Hg10 mi
10:55 AM65 °FSunny.No wind22%30.32 "Hg10 mi
10:35 AM62 °FSunny.No wind25%30.32 "Hg10 mi
10:15 AM60 °FSunny.3 mph27%30.32 "Hg10 mi
9:55 AM59 °FSunny.3 mph29%30.31 "Hg10 mi
9:35 AM58 °FSunny.5 mph29%30.31 "Hg10 mi
9:15 AM58 °FSunny.No wind29%30.31 "Hg10 mi
Weather by CustomWeather, © 2015

See weather overviewHow to use our weather pages